COSMOS 1275 DEB

Satellite information

Favourite Embed

Satellite Type and Status

DEBRISIN ORBIT

Key statistics

Satellite COSMOS 1275 DEB at a glance.

Uptime

16164

Days in orbit

Revolutions

≈ 14.2

Per day

Orbit

LEO

Low Earth Orbit

Inclination

83.1

Latest

Satellite identification and parameters

Extended collection of information and parameters for COSMOS 1275 DEB.

Object identification

Identified? True

Debris? True

Object name: COSMOS 1275 DEB

International designator: 1981-053MN

Object number (NORAD): 27733

Object ID (CCSDS): 27733

Country: COMMONWEALTH OF INDEPENDENT STATES (CIS)

Current information (Y/N): Y

RCS size: SMALL

Orbital parameters

Period: 101.412 minutes

Inclination: 83.11 deg

SMA: 7203.642 km

Apoapsis: 847.121 km

Periapsis: 803.893 km

RAAN: 46.7181 deg

Eccentricy: 0.00300043

Argument of periapsis: 146.563 deg

Mean anomaly: 213.7454 deg

Mean motion: 14.19955048 rev/day

Mean motion (dot): 0.00007341 rev/day2

B* drag term: 0.0034311558 1/REarth

Two-line elements (TLE)

Creation date: Sept. 4, 2025, 4:29 a.m.

Reference frame: TEME

Reference center: EARTH

Epoch: Sept. 3, 2025, 4:33 p.m. UTC

TLE line 0: 0 COSMOS 1275 DEB

TLE line 1: 1 27733U 81053MN 25246.69022640 .00007341 00000-0 34312-2 0 9997

TLE line 2: 2 27733 83.1100 46.7181 0030004 146.5630 213.7454 14.19955048326683

Live tracking on map

Real-time ground track for satellite COSMOS 1275 DEB.

In-orbit conjunctions

A list of the most updated potential collisions computed for object COSMOS 1275 DEB.

Target Orbit TCA Probability of collision Miss distance Type
CZ-6A DEB LEO 2025-05-10 09:37:30 0.0001669018 200.0 (m) DEBRIS
DELTA 1 DEB SSO 2025-01-27 09:05:44 0.000126392 120.0 (m) DEBRIS
FENGYUN 1C DEB SSO 2025-01-05 11:55:21 0.0001352377 115.0 (m) DEBRIS

Associated space launch

Navigation satellite providing location information for the Tsiklon-B navigation system

COSMOS 1275 DEB was lifted into orbit during the mission ‘Kosmos-3M | Parus 27’, on board a Kosmos-3M space rocket.

The launch took place on June 4, 1981, 3:41 p.m. from 132/2.

For more information about the launch, click the button.

Launch to space Kosmos-3M | Parus 27
Kosmos-3M | Parus 27

Agency: N/A

Status: Launch Successful

Launch date: June 4, 1981, 3:41 p.m. UTC

Rocket: Kosmos-3M

Launch pad: 132/2

Location: Plesetsk Cosmodrome, Russian Federation

...

Latest news about this satellite

There are no fresh news available about this satellite. Check back as we update our databases every day.


Newsletter sign-up

Weekly statistics, charts and insights to help you stay on top of the space industry.